Location: Peterborough
(44.3091°N, 78.3197°W)
Time: 18:51:25
(UTC-04:00)

Explorer 11/Cluster Stage 4 - Pass Details

Date: 23 March 2023
Orbit: 466 x 1237 km, 28.8° (Epoch: 06 June)

Event Time Altitude Azimuth Distance (km) Brightness Sun altitude
Rises 13:18:40 0° 250° (WSW) 3,683 10.2 46.8°
Reaches altitude 10° 13:22:36 10° 228° (SW) 2,886 10.1 46.8°
Maximum altitude 13:26:15 15° 197° (SSW) 2,667 10.4 46.8°
Drops below altitude 10° 13:30:08 10° 167° (SSE) 3,099 10.6 46.8°
Sets 13:34:39 0° 145° (SE) 4,135 10.8 46.7°
